Location: Newark
(59.4564°N, 26.6917°E)
Time: 06:18:05
(UTC+00:00)

Vanguard 3 - Pass Details

Date: 26 November 2019
Orbit: 508 x 3263 km, 33.3° (Epoch: 12 December)

Event Time Altitude Azimuth Distance (km) Brightness Sun altitude
Rises 14:45:28 0° 261° (W) 7,135 13.6 -8.9°
Reaches altitude 10° 14:52:05 10° 248° (WSW) 6,203 13.3 -9.7°
Maximum altitude 15:04:12 21° 210° (SSW) 5,120 11.9 -11.1°
Drops below altitude 10° 15:14:56 10° 171° (S) 5,396 11.5 -12.4°
Sets 15:20:08 0° 156° (SSE) 5,988 11.5 -13.0°
